Wind_Speed
19 19 20 20 20 21 20 19 19 19 18 17 16 16 16 16 15 14 14 14 13 13 12 12 11 11 11 11 12 12 12 13 14 14 14 14 14 14 14 15 15 15 15 14
19 20 20 20 20 20 20 19 19 19 19 18 17 16 16 17 17 16 16 15 14 14 13 13 13 13 12 12 13 13 13 14 15 15 15 15 15 15 16 17 15 15 15 15
19 20 20 20 20 19 19 19 20 21 20 19 17 16 17 18 18 18 17 16 15 14 14 14 14 14 13 13 13 14 14 15 15 15 15 15 16 17 17 17 16 16 16 16
20 20 20 20 20 19 19 19 19 20 19 19 19 18 19 19 19 18 18 17 16 16 16 16 16 16 15 15 15 15 15 15 16 16 16 16 16 17 17 16 15 15 16 16
20 20 20 20 20 19 20 20 20 20 19 19 19 19 18 20 20 19 19 18 18 17 17 17 17 18 17 16 16 16 16 16 16 16 16 16 16 17 17 15 14 14 15 16
20 20 20 20 21 21 21 20 20 20 20 21 20 19 19 20 20 20 20 19 18 18 18 18 18 18 18 18 18 16 16 16 16 17 17 17 16 16 16 16 15 15 15 16
21 21 21 21 21 22 21 20 20 20 21 20 20 21 21 21 21 20 19 19 19 19 19 18 19 18 19 19 18 18 17 17 17 17 17 17 17 17 17 17 17 16 16 16
21 22 23 22 22 22 22 22 21 20 19 19 22 22 22 21 21 20 19 19 19 20 19 19 19 19 19 20 19 19 18 18 17 17 17 17 17 18 18 18 18 17 17 17
21 22 23 24 23 23 23 23 23 23 22 21 22 23 22 22 21 20 20 19 19 19 19 18 19 19 19 19 19 19 19 19 19 18 18 18 18 18 18 19 19 18 17 17
21 22 23 23 24 24 24 23 24 24 23 22 22 23 23 21 21 21 20 20 20 20 19 18 19 20 20 20 21 21 20 19 19 18 18 19 19 18 19 19 18 18 18 19
22 23 23 23 23 24 24 24 25 24 24 23 22 22 23 21 21 21 21 21 21 22 21 21 21 21 21 22 22 22 21 21 21 20 20 19 20 20 19 19 19 19 19 19
21 22 23 24 24 25 25 25 26 25 26 25 23 22 23 21 21 22 21 21 22 23 23 23 23 23 22 23 23 22 22 22 22 22 21 21 21 21 21 20 20 20 20 20
23 23 23 24 25 26 27 27 26 26 26 26 25 23 23 23 22 23 23 23 23 23 24 23 23 23 23 23 23 23 23 23 23 22 22 22 22 22 21 21 21 21 20 20
24 25 25 25 25 25 26 26 26 27 27 27 26 24 25 25 24 24 24 24 24 24 24 24 24 24 23 23 23 23 24 23 23 23 23 22 22 22 23 22 21 21 20 19
25 25 26 25 24 25 25 26 27 28 28 28 27 27 26 27 27 26 25 25 25 25 25 25 25 24 24 24 24 24 24 24 24 23 23 22 22 22 22 22 21 20 19 18
25 25 25 26 25 25 26 26 28 28 29 29 30 30 28 28 27 27 26 25 26 27 26 26 26 26 25 24 23 24 24 23 22 22 22 22 22 22 21 21 20 19 18 18
25 25 26 26 25 26 28 27 28 29 29 30 30 30 28 28 28 27 27 26 26 27 27 26 26 26 25 24 23 23 22 22 22 21 21 21 22 22 21 21 19 19 18 18
24 24 25 25 25 27 27 27 27 28 28 29 30 29 29 29 29 29 28 28 27 27 26 24 25 25 25 24 23 23 22 21 21 21 21 21 21 21 21 20 20 20 19 19
24 24 24 25 26 27 26 26 27 28 28 28 29 28 29 29 29 29 28 28 28 27 26 26 25 25 24 23 23 22 22 22 21 22 21 21 21 21 21 21 21 21 21 20
24 24 24 25 25 26 26 26 27 28 29 28 28 28 28 28 28 28 28 28 27 27 26 25 25 25 25 25 24 24 24 23 23 22 22 22 22 22 22 22 22 21 21 21
23 23 24 24 24 25 25 26 26 27 28 28 27 27 28 27 27 27 28 27 26 26 26 26 25 25 26 25 25 25 24 23 23 23 23 23 23 23 22 22 22 22 22 21
22 23 23 23 24 25 26 27 27 27 27 27 27 27 26 26 26 26 26 26 25 25 25 26 26 26 26 26 25 25 24 24 24 24 24 23 23 23 23 22 22 22 22 22
22 22 23 24 24 25 26 27 26 26 26 26 26 26 25 25 25 26 26 25 25 25 25 25 25 26 26 26 25 25 24 24 24 24 24 24 23 23 23 22 22 21 21 22
22 23 23 24 24 24 24 25 25 25 25 25 25 24 24 25 25 25 25 25 25 26 26 26 25 26 26 26 26 26 25 25 25 25 25 24 24 23 23 22 22 21 21 21
22 23 24 24 23 23 23 23 24 25 25 24 23 24 23 23 24 24 24 25 25 25 25 26 26 26 26 25 26 26 26 26 26 25 25 24 24 24 23 22 22 21 21 21
21 22 23 23 23 23 22 22 22 23 24 24 24 23 22 22 23 24 24 24 25 25 25 25 25 26 26 26 26 26 27 27 26 25 24 24 24 24 23 23 22 22 21 21
Wind_Direction
223 223 223 224 223 225 228 231 234 236 239 241 244 243 245 246 249 252 256 263 268 271 275 279 282 286 287 288 291 293 298 306 311 311 307 303 299 299 298 301 299 296 292 295
224 225 226 227 227 228 229 232 235 237 240 243 245 243 245 247 248 252 256 263 269 271 273 275 278 282 284 286 289 289 294 302 307 308 307 303 299 297 299 298 291 290 291 291
225 228 229 229 229 230 233 234 234 237 240 243 246 247 248 247 247 251 257 262 267 269 270 271 274 277 280 285 287 288 291 296 301 306 305 305 302 298 297 293 287 286 290 288
226 229 229 230 231 231 233 235 235 238 241 246 247 244 250 250 250 251 256 261 265 268 270 271 273 275 278 281 282 283 285 291 296 300 300 301 300 302 300 293 291 292 295 290
227 229 230 232 232 232 232 234 237 241 242 244 249 247 249 251 251 253 257 262 266 268 270 270 272 273 275 277 280 282 282 287 292 295 298 300 301 302 303 299 295 296 299 297
229 230 231 233 233 231 232 236 240 244 245 248 249 251 250 251 253 255 258 262 265 268 270 268 269 271 271 273 277 280 282 283 287 291 296 297 297 299 300 296 293 294 298 299
229 230 231 233 234 235 236 236 241 246 249 252 252 252 250 252 255 258 260 263 266 269 270 268 268 269 269 271 274 277 278 280 284 288 291 292 294 297 298 296 293 292 294 296
233 235 234 236 237 240 241 239 239 242 249 255 257 254 254 255 255 258 261 265 266 268 269 267 267 269 270 271 272 275 276 278 282 286 290 290 292 295 296 297 293 293 294 293
235 239 238 238 239 241 243 242 242 245 246 248 253 257 256 257 258 259 263 265 267 267 267 267 267 269 271 273 274 276 277 276 280 284 286 289 292 294 295 295 293 292 292 293
238 241 241 240 240 242 243 243 243 244 247 250 256 260 260 259 260 261 262 263 265 265 265 267 268 270 271 273 275 277 276 275 277 280 282 286 289 292 294 294 293 293 292 292
239 242 242 239 240 243 244 244 245 247 248 249 255 260 261 260 259 260 260 261 264 265 267 270 270 270 272 274 275 276 275 274 275 278 279 283 287 290 293 293 292 294 294 294
240 240 242 242 242 244 246 247 247 247 250 252 253 256 259 260 259 258 259 262 263 265 267 269 268 269 271 272 274 275 274 272 273 275 278 282 285 287 289 290 290 293 294 293
241 240 243 245 245 245 246 246 246 247 250 253 253 256 259 258 259 259 260 262 263 264 266 267 267 268 270 272 273 273 273 270 271 274 276 278 281 285 287 289 289 291 292 291
243 244 244 245 247 248 248 247 247 247 249 253 254 255 257 257 259 261 262 263 263 263 264 266 267 268 269 271 271 270 273 270 270 273 274 276 279 282 284 286 289 290 290 289
244 245 245 245 245 246 249 249 248 247 249 251 254 256 258 259 261 262 263 264 265 264 264 265 266 267 268 269 268 269 271 269 269 271 272 275 277 279 280 284 287 287 287 287
246 246 246 247 249 248 249 249 250 251 253 253 255 257 258 259 261 263 264 263 264 265 266 265 265 265 266 267 267 268 270 269 270 270 270 272 274 276 278 280 282 282 283 283
245 247 248 249 250 251 251 250 251 254 255 255 257 260 261 259 259 262 263 264 264 265 266 265 264 264 265 267 269 270 271 270 269 269 270 272 273 274 276 277 279 280 278 279
248 249 251 252 251 251 255 254 255 257 256 256 257 259 259 261 261 262 263 264 263 264 265 264 263 263 264 267 269 269 269 268 269 268 270 275 275 273 274 276 276 277 277 278
249 251 253 254 255 256 254 256 256 258 258 258 258 259 260 261 263 262 262 263 265 265 265 265 266 266 266 267 268 269 269 268 268 268 269 273 276 275 273 273 274 275 275 276
250 251 254 255 255 256 257 257 256 257 258 257 259 260 261 261 262 262 262 262 264 264 263 263 264 264 265 265 266 267 266 269 269 269 271 272 273 274 274 272 271 272 274 274
250 252 253 254 256 258 257 256 257 258 258 258 260 261 261 259 260 260 260 260 262 262 262 262 262 261 264 266 266 266 267 269 269 269 270 271 270 271 273 271 270 271 274 273
251 252 251 254 255 257 256 258 259 260 260 261 261 261 261 260 261 259 259 260 261 261 261 262 261 262 263 265 266 267 267 269 270 270 270 270 270 270 270 270 271 273 273 272
250 251 252 253 256 258 259 260 260 262 264 264 264 262 261 260 260 259 259 259 259 260 261 262 263 263 262 264 266 268 269 269 270 269 268 268 269 269 269 269 270 272 274 274
251 251 252 254 257 260 262 262 262 264 265 265 265 263 262 261 260 259 258 259 260 260 260 261 263 264 263 263 264 266 268 269 268 268 266 265 266 267 267 267 268 271 273 275
252 253 254 256 258 261 261 263 264 263 263 265 263 261 261 260 260 260 260 261 261 261 261 262 262 263 262 263 263 264 265 267 267 265 264 263 264 265 266 266 268 269 271 272
256 258 258 259 260 263 264 262 262 262 263 265 264 261 258 259 261 261 260 260 261 262 262 262 262 262 263 264 264 265 265 265 264 263 264 264 264 264 263 264 265 266 268 269
Height
5850 5854 5856 5859 5862 5865 5867 5869 5871 5873 5874 5876 5877 5879 5880 5880 5881 5882 5882 5883 5883 5882 5882 5881 5881 5880 5879 5879 5878 5877 5876 5875 5873 5872 5870 5869 5867 5866 5865 5864 5862 5861 5859 5858
5848 5850 5853 5855 5857 5860 5863 5865 5868 5869 5870 5872 5873 5875 5876 5877 5878 5878 5879 5879 5879 5879 5879 5879 5878 5877 5877 5876 5875 5874 5873 5872 5871 5870 5868 5866 5864 5863 5862 5861 5859 5858 5856 5855
5844 5847 5848 5851 5853 5856 5858 5861 5863 5865 5866 5868 5870 5872 5873 5873 5874 5875 5875 5876 5876 5876 5876 5876 5875 5874 5874 5873 5873 5872 5871 5870 5869 5867 5865 5864 5862 5860 5859 5857 5855 5854 5853 5851
5840 5842 5844 5847 5849 5852 5854 5856 5858 5860 5863 5865 5867 5869 5869 5869 5870 5870 5871 5871 5872 5872 5872 5872 5871 5871 5871 5870 5869 5868 5867 5867 5866 5864 5863 5861 5859 5857 5855 5853 5851 5850 5849 5847
5836 5838 5840 5843 5845 5848 5850 5852 5854 5856 5858 5861 5862 5864 5867 5865 5865 5866 5867 5867 5868 5868 5868 5867 5867 5867 5867 5866 5866 5865 5864 5863 5862 5861 5860 5858 5856 5854 5852 5850 5848 5847 5845 5844
5832 5834 5836 5839 5841 5843 5845 5848 5850 5852 5854 5856 5858 5860 5861 5861 5861 5862 5862 5863 5863 5863 5863 5863 5863 5863 5863 5862 5862 5861 5861 5860 5859 5858 5856 5855 5853 5851 5849 5846 5845 5843 5842 5840
5828 5830 5832 5834 5837 5839 5842 5845 5847 5849 5850 5852 5853 5854 5856 5856 5856 5857 5857 5858 5858 5859 5859 5859 5858 5858 5858 5858 5858 5857 5857 5856 5855 5854 5853 5851 5849 5847 5845 5843 5841 5840 5838 5836
5824 5826 5828 5830 5833 5835 5837 5840 5844 5846 5848 5849 5847 5848 5851 5850 5851 5852 5852 5853 5853 5854 5854 5854 5854 5854 5854 5853 5853 5853 5852 5852 5851 5850 5849 5847 5845 5844 5842 5840 5837 5835 5834 5832
5820 5822 5823 5825 5827 5830 5832 5834 5837 5839 5840 5842 5843 5843 5845 5845 5846 5847 5848 5848 5848 5849 5849 5849 5849 5849 5849 5849 5848 5848 5848 5847 5847 5846 5845 5843 5841 5840 5838 5835 5833 5831 5830 5828
5814 5817 5818 5820 5822 5824 5826 5828 5830 5832 5834 5836 5838 5838 5839 5839 5840 5842 5842 5843 5843 5843 5843 5844 5844 5844 5844 5843 5843 5843 5842 5842 5841 5840 5840 5839 5837 5835 5833 5831 5829 5827 5825 5823
5809 5811 5813 5814 5816 5818 5821 5823 5824 5827 5829 5831 5833 5835 5832 5834 5834 5835 5836 5837 5837 5838 5838 5838 5838 5838 5838 5838 5837 5837 5836 5836 5836 5835 5834 5833 5832 5830 5828 5826 5824 5822 5820 5818
5803 5805 5807 5809 5811 5812 5814 5817 5819 5821 5822 5823 5826 5830 5826 5827 5828 5829 5830 5831 5831 5831 5831 5832 5832 5832 5832 5831 5831 5831 5830 5830 5829 5829 5828 5828 5826 5825 5823 5821 5819 5817 5814 5812
5797 5799 5801 5803 5806 5806 5807 5809 5812 5814 5816 5817 5819 5823 5820 5821 5822 5823 5824 5824 5825 5825 5825 5825 5825 5825 5825 5825 5825 5824 5824 5823 5823 5822 5822 5822 5821 5819 5818 5816 5814 5811 5809 5806
5791 5793 5796 5798 5799 5800 5801 5803 5805 5807 5808 5810 5812 5814 5814 5814 5815 5816 5817 5817 5818 5818 5818 5818 5818 5818 5818 5818 5818 5817 5817 5816 5816 5816 5816 5815 5815 5814 5812 5810 5808 5806 5804 5801
5784 5786 5787 5789 5791 5792 5794 5796 5797 5799 5801 5803 5804 5805 5807 5807 5808 5809 5810 5810 5811 5811 5811 5811 5811 5811 5812 5811 5811 5811 5810 5809 5809 5809 5809 5809 5808 5807 5806 5804 5803 5801 5799 5797
5776 5779 5780 5782 5783 5785 5786 5788 5790 5791 5793 5794 5796 5797 5798 5799 5800 5801 5802 5802 5803 5803 5804 5804 5804 5804 5804 5804 5804 5804 5803 5803 5803 5803 5802 5802 5802 5801 5800 5798 5797 5796 5794 5792
5770 5771 5773 5775 5776 5777 5778 5781 5782 5784 5785 5787 5788 5790 5790 5791 5792 5793 5794 5794 5795 5795 5796 5796 5796 5797 5797 5797 5797 5796 5796 5796 5796 5796 5796 5795 5795 5794 5793 5792 5791 5790 5789 5787
5763 5764 5765 5767 5769 5769 5773 5773 5774 5776 5777 5778 5779 5780 5781 5782 5783 5784 5786 5786 5787 5787 5788 5788 5789 5789 5790 5790 5790 5789 5789 5789 5789 5789 5789 5789 5788 5788 5787 5786 5785 5784 5783 5782
5755 5757 5758 5759 5760 5761 5764 5764 5766 5767 5768 5769 5770 5772 5773 5774 5775 5776 5777 5778 5779 5779 5780 5781 5781 5782 5783 5783 5783 5782 5783 5783 5783 5782 5782 5782 5782 5781 5780 5780 5779 5778 5777 5776
5748 5749 5751 5751 5752 5753 5756 5756 5757 5760 5759 5761 5762 5763 5764 5765 5767 5768 5769 5770 5771 5771 5772 5773 5774 5775 5775 5776 5776 5776 5776 5776 5776 5776 5776 5775 5775 5774 5773 5773 5772 5771 5770 5769
5740 5741 5742 5743 5744 5746 5747 5747 5749 5752 5752 5752 5754 5755 5756 5757 5758 5760 5760 5761 5763 5763 5764 5765 5766 5767 5768 5768 5768 5768 5768 5768 5768 5768 5768 5768 5767 5767 5766 5766 5765 5764 5763 5762
5733 5734 5735 5736 5737 5740 5739 5739 5742 5743 5743 5744 5745 5746 5747 5748 5749 5750 5751 5753 5754 5755 5757 5757 5758 5759 5760 5760 5760 5760 5761 5761 5760 5760 5760 5760 5759 5759 5759 5758 5758 5757 5756 5756
5726 5728 5728 5730 5731 5730 5730 5731 5733 5734 5734 5735 5736 5737 5737 5739 5740 5742 5743 5745 5746 5747 5748 5749 5750 5751 5752 5752 5753 5753 5753 5753 5752 5752 5752 5752 5752 5752 5751 5751 5751 5750 5749 5748
5719 5720 5721 5721 5722 5722 5723 5723 5724 5725 5726 5727 5728 5728 5728 5730 5732 5733 5735 5736 5738 5739 5740 5741 5741 5742 5743 5744 5744 5745 5745 5745 5744 5744 5744 5744 5744 5744 5744 5744 5743 5743 5742 5742
5712 5713 5714 5714 5715 5715 5716 5716 5717 5717 5718 5719 5719 5720 5721 5723 5724 5725 5727 5728 5729 5730 5731 5732 5733 5734 5735 5735 5736 5737 5737 5736 5736 5736 5736 5736 5736 5736 5736 5736 5736 5736 5736 5735
5706 5707 5707 5708 5708 5709 5709 5709 5710 5710 5711 5711 5712 5713 5714 5715 5717 5718 5719 5720 5721 5722 5723 5724 5725 5725 5726 5727 5727 5728 5728 5728 5728 5728 5728 5728 5728 5728 5728 5729 5729 5729 5729 5728